Flag for Germany Weather past 2 weeks in Reutlingen, Baden-Württemberg, Germany

Now
68 °F

Broken clouds.


Feels Like: 68 °F
Forecast: 62 / 95 °F
Wind: 6 mph from Northwest

Location: Stuttgart-Echterdingen

Current Time: Jul 6, 2015 at 9:06:09 AM

Latest Report: Jul 6, 2015 at 8:20 AM


Visibility: N/A

Pressure: 30.21 "Hg

Humidity: 64%

Dew point: 55 °F

Location of ReutlingenLocation

Historic Weather in Reutlingen — Graph

°F

Reutlingen temperature yesterday

Maximum temperature yesterday: 99 °F (at 4:20 PM)
Minimum temperature yesterday: 66 °F (at 5:20 AM)
Average temperature yesterday: 84 °F

Past Weeks' High & Low Weather Summary

 TemperatureHumidityPressure
High99 °F (Jul 5, 4:20 PM)100% (Jun 22, 3:20 AM)30.27 "Hg (Jun 22, 3:20 AM)
Low46 °F (Jun 24, 4:50 AM)22% (Jul 4, 6:20 PM)29.74 "Hg (Jun 22, 8:50 PM)
Average69 °F67%30.12 "Hg
* Reported Jun 21 7:20 AM — Jul 6 7:50 AM, Reutlingen, Weather by CustomWeather, © 2015

Note: Actual official high and low records may vary slightly from our data, if they occured in-between our weather recording intervals... More about our weather records

Advertising

Reutlingen weather history for previous 24 hours

 ConditionsComfort  
Time TempWeatherWind HumidityBarometerVisibility
7:50 AM
Mon, Jul 6
68 °FBroken clouds.6 mph64%30.21 "HgN/A
7:20 AM68 °FBroken clouds.8 mph64%30.21 "HgN/A
6:50 AM68 °FScattered clouds.9 mph69%30.21 "HgN/A
6:20 AM68 °FPassing clouds.15 mph69%30.18 "HgN/A
5:20 AM68 °FPassing clouds.10 mph78%30.18 "HgN/A
4:50 AM70 °FPassing clouds.12 mph73%30.15 "HgN/A
4:20 AM72 °FPassing clouds.12 mph73%30.15 "HgN/A
3:50 AM72 °FPartly cloudy.15 mph73%30.12 "HgN/A
3:20 AM73 °FPassing clouds.14 mph74%30.12 "HgN/A
2:50 AM75 °FPassing clouds.14 mph74%30.12 "HgN/A
2:20 AM75 °FPassing clouds.10 mph69%30.12 "HgN/A
1:50 AM77 °FPassing clouds.12 mph65%30.09 "HgN/A
1:20 AM81 °FPassing clouds.7 mph54%30.07 "HgN/A
12:50 AM82 °FPassing clouds.8 mph51%30.07 "HgN/A
12:20 AM82 °FPassing clouds.12 mph48%30.04 "HgN/A
11:50 PM
Sun, Jul 5
84 °FPassing clouds.17 mph45%30.01 "HgN/A
11:20 PM84 °FPassing clouds.16 mph45%29.98 "HgN/A
10:50 PM86 °FPassing clouds.10 mph43%29.98 "HgN/A
10:20 PM86 °FPassing clouds.9 mph46%29.98 "HgN/A
9:50 PM88 °FPassing clouds.6 mph43%29.95 "HgN/A
9:20 PM88 °FPassing clouds.5 mph43%29.95 "HgN/A
8:50 PM88 °FPassing clouds.5 mph40%29.92 "HgN/A
8:20 PM90 °FPassing clouds.6 mph38%29.92 "HgN/A
7:50 PM93 °FPassing clouds.6 mph32%29.92 "HgN/A
7:20 PM95 °FPassing clouds.6 mph28%29.92 "HgN/A
6:50 PM95 °FPassing clouds.5 mph26%29.92 "HgN/A
6:20 PM97 °FPassing clouds.6 mph27%29.92 "HgN/A
5:50 PM97 °FPassing clouds.7 mph30%29.95 "HgN/A
5:20 PM97 °FPassing clouds.3 mph28%29.95 "HgN/A
4:50 PM97 °FPassing clouds.6 mph28%29.95 "HgN/A
4:20 PM99 °FSunny.5 mph24%29.98 "Hg10 mi
3:50 PM97 °FPassing clouds.7 mph28%29.98 "HgN/A
3:20 PM97 °FPassing clouds.6 mph30%29.98 "HgN/A
2:50 PM97 °FPassing clouds.7 mph28%30.01 "HgN/A
2:20 PM97 °FPassing clouds.6 mph28%30.01 "HgN/A
1:50 PM95 °FSunny.6 mph32%30.04 "Hg10 mi
1:20 PM95 °FSunny.6 mph30%30.04 "Hg10 mi
12:50 PM93 °FSunny.3 mph36%30.04 "Hg10 mi
12:20 PM93 °FPassing clouds.5 mph32%30.04 "HgN/A
11:50 AM91 °FPassing clouds.5 mph41%30.04 "HgN/A
11:20 AM90 °FPassing clouds.5 mph46%30.07 "HgN/A
10:50 AM90 °FPassing clouds.3 mph43%30.07 "HgN/A
10:20 AM86 °FSunny.2 mph52%30.07 "Hg10 mi
9:50 AM84 °FPassing clouds.3 mph62%30.07 "HgN/A
9:20 AM81 °FPassing clouds.3 mph66%30.09 "HgN/A
Weather by CustomWeather, © 2015

See weather overviewHow to use our weather pages